XCUBE-1 (62400 NORAD) Tracking and Keplerian Element Data

This shows tracking and keplerian element data for the satellite.

Feedback or suggestion? Click here.




ElementValue
Catalog62400
NameXCUBE-1
Epoch Orbit681
Epoch Day34.3125246
Epoch Year2025
RAAN124.5488
Inclination44.9946
Eccentricity0.0004712
Argument of Perigee247.5408
Mean Anonmoly112.4973
Mean Motion15.19965186
Decay Rate0.00011313
L11 62400U 24247Z 25034.31252460 .00011313 00000+0 52818-3 0 9993
L22 62400 44.9946 124.5488 0004712 247.5408 112.4973 15.19965186 6819



Live tracking and technical data element details for XCUBE-1 (NORAD 62400). XCUBE-1 can be tracked NOW for your location showing map with azimuth and elevation plus other details from your city location.







IsCatalogInMostPopularTable: catalog: 62400, numindb: 23
Update: records affected: 1



GetName: 62400 XCUBE-1

Hit Count: updated at: Sun, 18 May 2025 22:26:45 GMT